Location: Wingville
(42.9917°N, 90.4915°W)
Time: 13:49:07
(UTC+00:00)

Cosmos 1805 Rocket - Pass Details

Date: 04 December 2022
Orbit: 604 x 629 km, 82.5° (Epoch: 04 February)

Event Time Altitude Azimuth Distance (km) Brightness Sun altitude
Rises 12:29:22 0° 143° (SE) 2,850 8.1 -8.6°
Reaches altitude 10° 12:32:22 10° 120° (ESE) 1,955 7.8 -8.1°
Maximum altitude 12:34:51 15° 85° (E) 1,648 6.8 -7.7°
Drops below altitude 10° 12:37:21 10° 50° (NE) 1,971 6.5 -7.2°
Sets 12:40:23 0° 27° (NNE) 2,887 7.0 -6.7°
